ABY175 OEMA-OMSJ

Flight info

Callsign ABY175
Flight time 2h 8m
Altitude 35000
Route MEDRO1K MEDRO J852 GOKSA M872 BDB DCT KODIS Y214 RAPMA/N0459F290 Y214 KUVSO DCT KATIT DCT PEKEM M628 RIGIL G783 ELUDA/N0469F350 G783 ASPED Q308 KIPOK Q568 IMPED DCT
Aircraft A20N/M-SDE2E3FGHIRWXY/LB1

Departure

Time 2026-04-21 19:21
Airport Prince Mohammad Bin Abdulaziz Airport (OEMA)

Arrival

Time 2026-04-21 21:30
Airport Sharjah International Airport (OMSJ)
Time Latitude Longitude Altitude Speed Heading
2026-04-21 18:51 24.55612 39.71272 2107 ft 0 kts 79°
2026-04-21 18:52 24.55612 39.71273 2107 ft 0 kts 79°
2026-04-21 19:06 24.55611 39.71271 2107 ft 1 kts 79°
2026-04-21 19:06 24.55610 39.71260 2081 ft 2 kts 79°
2026-04-21 19:06 24.55607 39.71244 2124 ft 2 kts 79°
2026-04-21 19:07 24.55604 39.71228 2109 ft 2 kts 79°
2026-04-21 19:07 24.55601 39.71212 2108 ft 2 kts 79°
2026-04-21 19:07 24.55599 39.71195 2108 ft 2 kts 92°
2026-04-21 19:07 24.55601 39.71179 2107 ft 2 kts 111°
2026-04-21 19:08 24.55608 39.71165 2107 ft 2 kts 130°
2026-04-21 19:08 24.55618 39.71153 2109 ft 2 kts 149°
2026-04-21 19:08 24.55632 39.71146 2107 ft 2 kts 168°
2026-04-21 19:08 24.55647 39.71144 2108 ft 2 kts 182°
2026-04-21 19:09 24.55661 39.71144 2108 ft 2 kts 172°
2026-04-21 19:09 24.55670 39.71143 2111 ft 0 kts 170°
2026-04-21 19:11 24.55661 39.71144 2108 ft 4 kts 170°
2026-04-21 19:12 24.55617 39.71152 2109 ft 9 kts 170°
2026-04-21 19:12 24.55551 39.71165 2106 ft 11 kts 170°
2026-04-21 19:12 24.55461 39.71183 2104 ft 15 kts 169°
2026-04-21 19:12 24.55356 39.71206 2102 ft 11 kts 168°
2026-04-21 19:13 24.55297 39.71218 2101 ft 10 kts 175°
2026-04-21 19:13 24.55240 39.71172 2099 ft 12 kts 254°
2026-04-21 19:13 24.55216 39.71074 2099 ft 15 kts 233°
2026-04-21 19:13 24.55111 39.71062 2097 ft 18 kts 170°
2026-04-21 19:14 24.54974 39.71088 2094 ft 22 kts 170°
2026-04-21 19:14 24.54822 39.71124 2091 ft 23 kts 168°
2026-04-21 19:14 24.54652 39.71162 2088 ft 27 kts 168°
2026-04-21 19:14 24.54484 39.71197 2085 ft 23 kts 170°
2026-04-21 19:15 24.54359 39.71222 2082 ft 16 kts 169°
2026-04-21 19:15 24.54239 39.71247 2080 ft 19 kts 169°
2026-04-21 19:15 24.54103 39.71276 2078 ft 20 kts 169°
2026-04-21 19:15 24.53987 39.71299 2075 ft 14 kts 170°
2026-04-21 19:16 24.53896 39.71318 2072 ft 11 kts 171°
2026-04-21 19:16 24.53838 39.71285 2073 ft 7 kts 239°
2026-04-21 19:16 24.53829 39.71257 2073 ft 0 kts 256°
2026-04-21 19:19 24.53826 39.71241 2073 ft 8 kts 258°
2026-04-21 19:19 24.53817 39.71156 2073 ft 12 kts 283°
2026-04-21 19:20 24.53886 39.71126 2072 ft 12 kts 349°
2026-04-21 19:20 24.53935 39.71116 2075 ft 4 kts 349°
2026-04-21 19:20 24.53974 39.71108 2073 ft 7 kts 349°
2026-04-21 19:20 24.54087 39.71085 2075 ft 45 kts 349°
2026-04-21 19:21 24.54663 39.70963 2090 ft 119 kts 349°
2026-04-21 19:21 24.55673 39.70749 2169 ft 169 kts 349°
2026-04-21 19:21 24.56856 39.70501 2805 ft 178 kts 349°
2026-04-21 19:21 24.58069 39.70250 3686 ft 173 kts 349°
2026-04-21 19:22 24.59292 39.69994 4335 ft 187 kts 348°
2026-04-21 19:22 24.60646 39.69708 4781 ft 209 kts 348°
2026-04-21 19:22 24.62151 39.69384 5220 ft 230 kts 348°
2026-04-21 19:22 24.63804 39.69028 5642 ft 253 kts 348°
2026-04-21 19:23 24.65617 39.68640 6132 ft 275 kts 347°
2026-04-21 19:23 24.67523 39.68233 6940 ft 282 kts 347°
2026-04-21 19:23 24.69470 39.67820 7815 ft 287 kts 347°
2026-04-21 19:23 24.71447 39.67409 8698 ft 292 kts 348°
2026-04-21 19:24 24.73480 39.67058 9563 ft 299 kts 356°
2026-04-21 19:24 24.75547 39.67445 10334 ft 310 kts 20°
2026-04-21 19:24 24.77436 39.68750 10674 ft 336 kts 43°
2026-04-21 19:24 24.78844 39.70903 10945 ft 359 kts 66°
2026-04-21 19:25 24.79428 39.73587 11604 ft 365 kts 89°
2026-04-21 19:25 24.79103 39.76353 12323 ft 368 kts 110°
2026-04-21 19:25 24.77920 39.78847 13042 ft 370 kts 129°
2026-04-21 19:25 24.76385 39.81157 13714 ft 379 kts 122°
2026-04-21 19:26 24.75284 39.83766 14413 ft 385 kts 116°
2026-04-21 19:26 24.74251 39.86504 15049 ft 391 kts 115°
2026-04-21 19:26 24.73218 39.89297 15684 ft 397 kts 115°
2026-04-21 19:26 24.72169 39.92130 16310 ft 403 kts 115°
2026-04-21 19:27 24.71099 39.94995 16917 ft 408 kts 115°
2026-04-21 19:27 24.70008 39.97900 17532 ft 413 kts 116°
2026-04-21 19:27 24.68897 40.00845 18124 ft 419 kts 116°
2026-04-21 19:27 24.67772 40.03821 18657 ft 423 kts 116°
2026-04-21 19:28 24.66635 40.06827 19260 ft 426 kts 116°
2026-04-21 19:28 24.65492 40.09845 19820 ft 430 kts 116°
2026-04-21 19:28 24.64336 40.12893 20345 ft 435 kts 116°
2026-04-21 19:28 24.63164 40.15977 20899 ft 439 kts 116°
2026-04-21 19:29 24.61983 40.19087 21442 ft 443 kts 116°
2026-04-21 19:29 24.60789 40.22227 21993 ft 446 kts 116°
2026-04-21 19:29 24.59587 40.25389 22543 ft 450 kts 116°
2026-04-21 19:29 24.58374 40.28574 23070 ft 455 kts 116°
2026-04-21 19:30 24.57148 40.31791 23584 ft 459 kts 116°
2026-04-21 19:30 24.55909 40.35039 24034 ft 463 kts 117°
2026-04-21 19:30 24.54660 40.38312 24499 ft 466 kts 117°
2026-04-21 19:30 24.53402 40.41608 24950 ft 470 kts 117°
2026-04-21 19:31 24.52129 40.44939 25373 ft 474 kts 117°
2026-04-21 19:31 24.50848 40.48288 25810 ft 478 kts 117°
2026-04-21 19:31 24.49556 40.51662 26245 ft 481 kts 117°
2026-04-21 19:31 24.48255 40.55057 26659 ft 485 kts 117°
2026-04-21 19:32 24.46951 40.58496 27057 ft 490 kts 115°
2026-04-21 19:32 24.45937 40.62094 27471 ft 498 kts 106°
2026-04-21 19:32 24.45356 40.65864 27855 ft 505 kts 98°
2026-04-21 19:32 24.44980 40.69716 28232 ft 509 kts 98°
2026-04-21 19:33 24.44725 40.72279 28490 ft 511 kts 98°
2026-04-21 19:33 24.44199 40.77487 28955 ft 516 kts 99°
2026-04-21 19:33 24.43797 40.81406 29311 ft 519 kts 99°
2026-04-21 19:33 24.43395 40.85311 29647 ft 523 kts 99°
2026-04-21 19:34 24.42985 40.89286 29995 ft 526 kts 99°
2026-04-21 19:34 24.42571 40.93288 30283 ft 530 kts 99°
2026-04-21 19:34 24.42153 40.97322 30577 ft 533 kts 99°
2026-04-21 19:34 24.41732 41.01368 30868 ft 536 kts 99°
2026-04-21 19:35 24.41308 41.05443 31192 ft 538 kts 99°
2026-04-21 19:35 24.40454 41.13617 31940 ft 540 kts 99°
2026-04-21 19:35 24.40025 41.17715 32299 ft 541 kts 99°
2026-04-21 19:36 24.39593 41.21826 32659 ft 542 kts 98°
2026-04-21 19:36 24.39160 41.25929 33023 ft 542 kts 98°
2026-04-21 19:36 24.38725 41.30048 33372 ft 543 kts 98°
2026-04-21 19:36 24.38288 41.34165 33731 ft 544 kts 98°
2026-04-21 19:37 24.37850 41.38291 34042 ft 544 kts 98°
2026-04-21 19:37 24.37410 41.42417 34318 ft 545 kts 98°
2026-04-21 19:37 24.36968 41.46550 34586 ft 546 kts 98°
2026-04-21 19:37 24.36524 41.50690 34827 ft 547 kts 98°
2026-04-21 19:38 24.36079 41.54835 34905 ft 546 kts 98°
2026-04-21 19:38 24.35338 41.61706 34911 ft 545 kts 98°
2026-04-21 19:39 24.34300 41.71299 34910 ft 545 kts 98°
2026-04-21 19:39 24.33400 41.79552 34909 ft 545 kts 99°
2026-04-21 19:40 24.31735 41.87607 34906 ft 541 kts 110°
2026-04-21 19:40 24.29641 41.95536 34908 ft 541 kts 110°
2026-04-21 19:41 24.27556 42.03470 34911 ft 542 kts 110°
2026-04-21 19:41 24.25463 42.11410 34909 ft 542 kts 110°
2026-04-21 19:42 24.23363 42.19354 34909 ft 542 kts 110°
2026-04-21 19:42 24.21259 42.27290 34913 ft 543 kts 110°
2026-04-21 19:43 24.19147 42.35241 34910 ft 543 kts 110°
2026-04-21 19:43 24.17048 42.43124 34909 ft 543 kts 110°
2026-04-21 19:44 24.14931 42.51060 34905 ft 543 kts 110°
2026-04-21 19:44 24.12811 42.58987 34904 ft 543 kts 110°
2026-04-21 19:45 24.10686 42.66915 34901 ft 543 kts 110°
2026-04-21 19:45 24.08901 42.73558 34895 ft 543 kts 110°
2026-04-21 19:46 24.06421 42.82770 34893 ft 543 kts 110°
2026-04-21 19:46 24.04643 42.89364 34891 ft 543 kts 110°
2026-04-21 19:47 24.02498 42.97293 34895 ft 543 kts 110°
2026-04-21 19:47 24.00348 43.05225 34889 ft 544 kts 110°
2026-04-21 19:48 23.98193 43.13159 34889 ft 544 kts 110°
2026-04-21 19:48 23.96035 43.21082 34893 ft 544 kts 110°
2026-04-21 19:49 23.93873 43.29007 34890 ft 544 kts 110°
2026-04-21 19:49 23.91716 43.36890 34893 ft 545 kts 110°
2026-04-21 19:50 23.89537 43.44839 34894 ft 546 kts 110°
2026-04-21 19:50 23.87354 43.52789 34894 ft 546 kts 110°
2026-04-21 19:51 23.85194 43.60636 34890 ft 545 kts 110°
2026-04-21 19:51 23.83005 43.68570 34886 ft 545 kts 110°
2026-04-21 19:52 23.80815 43.76492 34886 ft 544 kts 110°
2026-04-21 19:52 23.78622 43.84405 34883 ft 544 kts 110°
2026-04-21 19:53 23.77103 43.92450 34884 ft 546 kts 95°
2026-04-21 19:53 23.76513 44.00717 34880 ft 546 kts 95°
2026-04-21 19:54 23.75900 44.08968 34877 ft 545 kts 95°
2026-04-21 19:54 23.75280 44.17221 34879 ft 545 kts 95°
2026-04-21 19:55 23.74658 44.25464 34877 ft 544 kts 95°
2026-04-21 19:55 23.74030 44.33718 34878 ft 544 kts 95°
2026-04-21 19:56 23.73403 44.41908 34888 ft 544 kts 95°
2026-04-21 19:56 23.72770 44.50126 34883 ft 544 kts 95°
2026-04-21 19:57 23.72131 44.58352 34881 ft 543 kts 95°
2026-04-21 19:57 23.71489 44.66568 34883 ft 543 kts 95°
2026-04-21 19:58 23.70842 44.74777 34886 ft 543 kts 95°
2026-04-21 19:58 23.70196 44.82932 34887 ft 542 kts 95°
2026-04-21 19:59 23.69543 44.91132 34882 ft 542 kts 95°
2026-04-21 19:59 23.68882 44.99342 34883 ft 542 kts 95°
2026-04-21 20:00 23.68219 45.07535 34879 ft 543 kts 95°
2026-04-21 20:00 23.67551 45.15741 34874 ft 543 kts 95°
2026-04-21 20:01 23.66878 45.23953 34872 ft 544 kts 95°
2026-04-21 20:01 23.66198 45.32177 34868 ft 544 kts 95°
2026-04-21 20:02 23.65515 45.40390 34867 ft 544 kts 95°
2026-04-21 20:02 23.64828 45.48610 34858 ft 545 kts 95°
2026-04-21 20:03 23.64135 45.56842 34855 ft 545 kts 95°
2026-04-21 20:03 23.63437 45.65076 34854 ft 545 kts 95°
2026-04-21 20:04 23.62735 45.73311 34855 ft 546 kts 95°
2026-04-21 20:04 23.62028 45.81555 34864 ft 546 kts 95°
2026-04-21 20:05 23.61318 45.89792 34858 ft 546 kts 95°
2026-04-21 20:05 23.60603 45.98025 34865 ft 546 kts 95°
2026-04-21 20:06 23.59888 46.06217 34867 ft 546 kts 95°
2026-04-21 20:06 23.59164 46.14461 34879 ft 546 kts 95°
2026-04-21 20:07 23.58436 46.22689 34872 ft 544 kts 95°
2026-04-21 20:07 23.57706 46.30893 34881 ft 543 kts 95°
2026-04-21 20:08 23.56965 46.39185 34886 ft 555 kts 95°
2026-04-21 20:08 23.56212 46.47550 34887 ft 553 kts 95°
2026-04-21 20:09 23.55456 46.55894 34890 ft 553 kts 95°
2026-04-21 20:09 23.54697 46.64207 34890 ft 551 kts 95°
2026-04-21 20:10 23.53936 46.72513 34884 ft 550 kts 95°
2026-04-21 20:10 23.53170 46.80815 34887 ft 550 kts 95°
2026-04-21 20:11 23.52399 46.89112 34895 ft 550 kts 95°
2026-04-21 20:11 23.51625 46.97408 34896 ft 550 kts 95°
2026-04-21 20:12 23.50847 47.05690 34891 ft 550 kts 95°
2026-04-21 20:12 23.50065 47.13977 34891 ft 549 kts 95°
2026-04-21 20:13 23.49279 47.22250 34886 ft 549 kts 95°
2026-04-21 20:13 23.48494 47.30465 34884 ft 548 kts 95°
2026-04-21 20:14 23.47701 47.38719 34883 ft 547 kts 95°
2026-04-21 20:14 23.46905 47.46964 34885 ft 547 kts 95°
2026-04-21 20:15 23.46107 47.55190 34880 ft 546 kts 95°
2026-04-21 20:15 23.45303 47.63419 34874 ft 546 kts 95°
2026-04-21 20:16 23.44497 47.71636 34868 ft 545 kts 96°
2026-04-21 20:16 23.43686 47.79845 34866 ft 545 kts 95°
2026-04-21 20:17 23.42872 47.88056 34856 ft 545 kts 95°
2026-04-21 20:17 23.42053 47.96266 34853 ft 545 kts 96°
2026-04-21 20:18 23.41368 48.03100 34853 ft 546 kts 96°
2026-04-21 20:18 23.40407 48.12637 34845 ft 546 kts 96°
2026-04-21 20:19 23.39574 48.20854 34843 ft 546 kts 96°
2026-04-21 20:19 23.38737 48.29065 34846 ft 546 kts 96°
2026-04-21 20:20 23.38136 48.35903 34847 ft 545 kts 91°
2026-04-21 20:20 23.37762 48.45547 34843 ft 546 kts 91°
2026-04-21 20:21 23.37432 48.53792 34843 ft 546 kts 91°
2026-04-21 20:21 23.37094 48.62047 34844 ft 546 kts 91°
2026-04-21 20:22 23.36751 48.70293 34847 ft 545 kts 91°
2026-04-21 20:22 23.36229 48.82653 34847 ft 545 kts 91°
2026-04-21 20:23 23.35878 48.90842 34838 ft 545 kts 91°
2026-04-21 20:23 23.35521 48.99072 34838 ft 544 kts 91°
2026-04-21 20:24 23.35071 49.07293 34833 ft 545 kts 96°
2026-04-21 20:24 23.33906 49.15446 34830 ft 545 kts 98°
2026-04-21 20:25 23.32737 49.23603 34828 ft 545 kts 98°
2026-04-21 20:25 23.31568 49.31758 34826 ft 545 kts 98°
2026-04-21 20:26 23.30390 49.39913 34824 ft 546 kts 98°
2026-04-21 20:26 23.29207 49.48063 34826 ft 545 kts 98°
2026-04-21 20:27 23.28021 49.56208 34833 ft 545 kts 98°
2026-04-21 20:27 23.26830 49.64350 34829 ft 545 kts 98°
2026-04-21 20:28 23.25635 49.72495 34823 ft 545 kts 98°
2026-04-21 20:28 23.24444 49.80579 34824 ft 544 kts 98°
2026-04-21 20:29 23.23243 49.88708 34819 ft 544 kts 98°
2026-04-21 20:29 23.22035 49.96843 34820 ft 544 kts 98°
2026-04-21 20:30 23.20835 50.04902 34821 ft 543 kts 98°
2026-04-21 20:30 23.19624 50.13008 34822 ft 543 kts 98°
2026-04-21 20:31 23.18408 50.21115 34820 ft 542 kts 98°
2026-04-21 20:31 23.17190 50.29203 34821 ft 542 kts 98°
2026-04-21 20:32 23.15969 50.37282 34822 ft 542 kts 98°
2026-04-21 20:32 23.14745 50.45360 34819 ft 541 kts 98°
2026-04-21 20:33 23.13526 50.53373 34818 ft 541 kts 98°
2026-04-21 20:33 23.12294 50.61440 34818 ft 540 kts 98°
2026-04-21 20:34 23.11061 50.69489 34817 ft 539 kts 98°
2026-04-21 20:34 23.09826 50.77522 34817 ft 539 kts 98°
2026-04-21 20:35 23.08797 50.84192 34814 ft 538 kts 98°
2026-04-21 20:35 23.07557 50.92203 34816 ft 538 kts 98°
2026-04-21 20:36 23.06314 51.00215 34813 ft 537 kts 98°
2026-04-21 20:36 23.05077 51.08154 34809 ft 536 kts 98°
2026-04-21 20:37 23.03830 51.16131 34802 ft 536 kts 98°
2026-04-21 20:37 23.02579 51.24107 34800 ft 536 kts 98°
2026-04-21 20:38 23.01323 51.32084 34800 ft 535 kts 98°
2026-04-21 20:38 23.00064 51.40058 34799 ft 535 kts 98°
2026-04-21 20:39 22.98804 51.48011 34794 ft 535 kts 98°
2026-04-21 20:39 22.97548 51.55912 34793 ft 535 kts 98°
2026-04-21 20:40 22.96279 51.63872 34791 ft 535 kts 98°
2026-04-21 20:40 22.95008 51.71814 34788 ft 534 kts 98°
2026-04-21 20:41 22.93732 51.79757 34789 ft 534 kts 98°
2026-04-21 20:41 22.92452 51.87705 34790 ft 534 kts 98°
2026-04-21 20:42 22.91172 51.95630 34788 ft 533 kts 98°
2026-04-21 20:42 22.89887 52.03552 34781 ft 533 kts 98°
2026-04-21 20:43 22.88600 52.11468 34789 ft 533 kts 98°
2026-04-21 20:43 22.87315 52.19340 34776 ft 533 kts 98°
2026-04-21 20:44 22.86021 52.27244 34776 ft 532 kts 98°
2026-04-21 20:44 22.84724 52.35142 34773 ft 532 kts 98°
2026-04-21 20:45 22.83425 52.43036 34772 ft 532 kts 98°
2026-04-21 20:45 22.82375 52.50972 34768 ft 529 kts 89°
2026-04-21 20:46 22.82182 52.58932 34769 ft 529 kts 89°
2026-04-21 20:46 22.81988 52.66896 34771 ft 528 kts 89°
2026-04-21 20:47 22.81782 52.74860 34774 ft 528 kts 89°
2026-04-21 20:47 22.81569 52.82813 34775 ft 528 kts 89°
2026-04-21 20:48 22.81353 52.90754 34769 ft 527 kts 89°
2026-04-21 20:48 22.81134 52.98697 34767 ft 526 kts 89°
2026-04-21 20:49 22.80912 53.06567 34775 ft 526 kts 89°
2026-04-21 20:49 22.80685 53.14479 34771 ft 525 kts 89°
2026-04-21 20:50 22.80454 53.22403 34769 ft 525 kts 89°
2026-04-21 20:50 22.80220 53.30308 34772 ft 524 kts 89°
2026-04-21 20:51 22.79982 53.38206 34769 ft 524 kts 89°
2026-04-21 20:51 22.79740 53.46102 34767 ft 524 kts 89°
2026-04-21 20:52 22.79494 53.54002 34769 ft 524 kts 89°
2026-04-21 20:52 22.79245 53.61849 34764 ft 524 kts 89°
2026-04-21 20:53 22.78992 53.69742 34766 ft 524 kts 89°
2026-04-21 20:53 22.78735 53.77641 34776 ft 524 kts 89°
2026-04-21 20:54 22.78474 53.85524 34771 ft 524 kts 90°
2026-04-21 20:54 22.78208 53.93419 34776 ft 523 kts 90°
2026-04-21 20:55 22.78447 54.01258 34770 ft 518 kts 78°
2026-04-21 20:55 22.79914 54.08851 34766 ft 515 kts 73°
2026-04-21 20:56 22.81459 54.16423 34769 ft 514 kts 74°
2026-04-21 20:56 22.82994 54.23993 34773 ft 513 kts 74°
2026-04-21 20:57 22.84521 54.31545 34761 ft 512 kts 74°
2026-04-21 20:57 22.86048 54.39106 34752 ft 512 kts 74°
2026-04-21 20:58 22.87567 54.46648 34770 ft 511 kts 74°
2026-04-21 20:58 22.89071 54.54134 34758 ft 511 kts 74°
2026-04-21 20:59 22.90577 54.61656 34762 ft 510 kts 74°
2026-04-21 20:59 22.92080 54.69175 34758 ft 510 kts 75°
2026-04-21 21:00 22.93576 54.76681 34762 ft 509 kts 75°
2026-04-21 21:00 22.95069 54.84190 34768 ft 509 kts 75°
2026-04-21 21:01 22.96556 54.91691 34755 ft 508 kts 75°
2026-04-21 21:01 22.98031 54.99149 34768 ft 508 kts 75°
2026-04-21 21:02 22.99512 55.06657 34757 ft 508 kts 75°
2026-04-21 21:02 23.01023 55.14142 34752 ft 506 kts 70°
2026-04-21 21:03 23.02273 55.17675 34752 ft 499 kts 58°
2026-04-21 21:03 23.04101 55.20832 34757 ft 491 kts 46°
2026-04-21 21:03 23.06432 55.23500 34759 ft 482 kts 34°
2026-04-21 21:03 23.09142 55.25561 34755 ft 472 kts 23°
2026-04-21 21:04 23.12127 55.26960 34759 ft 463 kts 11°
2026-04-21 21:04 23.15229 55.27847 34753 ft 460 kts
2026-04-21 21:04 23.21396 55.29592 34764 ft 461 kts
2026-04-21 21:05 23.27601 55.31410 34774 ft 462 kts
2026-04-21 21:05 23.33819 55.33246 34780 ft 463 kts
2026-04-21 21:06 23.40038 55.35083 34785 ft 463 kts
2026-04-21 21:06 23.46255 55.36921 34781 ft 463 kts
2026-04-21 21:07 23.52478 55.38762 34782 ft 463 kts 10°
2026-04-21 21:07 23.58703 55.40603 34782 ft 464 kts 10°
2026-04-21 21:08 23.64937 55.42449 34782 ft 464 kts 10°
2026-04-21 21:08 23.71133 55.44286 34787 ft 464 kts 10°
2026-04-21 21:09 23.77373 55.46138 34789 ft 465 kts 10°
2026-04-21 21:09 23.83622 55.47993 34789 ft 465 kts 10°
2026-04-21 21:10 23.89870 55.49850 34791 ft 466 kts 10°
2026-04-21 21:10 23.96126 55.51713 34789 ft 466 kts 12°
2026-04-21 21:11 23.99178 55.52945 34685 ft 469 kts 20°
2026-04-21 21:11 24.02062 55.54643 34232 ft 472 kts 28°
2026-04-21 21:11 24.04720 55.56790 33456 ft 479 kts 37°
2026-04-21 21:11 24.07205 55.59255 32402 ft 485 kts 39°
2026-04-21 21:12 24.09705 55.61748 31373 ft 488 kts 39°
2026-04-21 21:12 24.12227 55.64255 30423 ft 490 kts 39°
2026-04-21 21:12 24.14727 55.66736 29378 ft 492 kts 40°
2026-04-21 21:12 24.17266 55.69256 28380 ft 492 kts 40°
2026-04-21 21:13 24.19788 55.71761 27585 ft 488 kts 40°
2026-04-21 21:13 24.22291 55.74248 26820 ft 483 kts 40°
2026-04-21 21:13 24.24723 55.76666 26182 ft 477 kts 40°
2026-04-21 21:13 24.27210 55.79138 25365 ft 475 kts 40°
2026-04-21 21:14 24.29662 55.81576 24607 ft 473 kts 40°
2026-04-21 21:14 24.32086 55.83989 24093 ft 465 kts 40°
2026-04-21 21:14 24.34444 55.86339 23893 ft 449 kts 40°
2026-04-21 21:14 24.36715 55.88606 23822 ft 436 kts 39°
2026-04-21 21:15 24.38985 55.90866 23822 ft 443 kts 39°
2026-04-21 21:15 24.41277 55.93147 23825 ft 444 kts 39°
2026-04-21 21:15 24.43562 55.95425 23825 ft 444 kts 39°
2026-04-21 21:15 24.45844 55.97701 23832 ft 443 kts 39°
2026-04-21 21:16 24.48128 55.99981 23832 ft 444 kts 39°
2026-04-21 21:16 24.50381 56.02231 23834 ft 444 kts 39°
2026-04-21 21:16 24.52666 56.04515 23834 ft 443 kts 39°
2026-04-21 21:16 24.54942 56.06791 23643 ft 442 kts 39°
2026-04-21 21:17 24.57246 56.09101 22988 ft 444 kts 39°
2026-04-21 21:17 24.59656 56.11088 22464 ft 434 kts 26°
2026-04-21 21:17 24.62390 56.12413 22235 ft 414 kts 13°
2026-04-21 21:17 24.65142 56.13076 21980 ft 398 kts
2026-04-21 21:18 24.67816 56.13558 21575 ft 390 kts
2026-04-21 21:18 24.70514 56.13634 21190 ft 396 kts 355°
2026-04-21 21:18 24.73301 56.13578 20735 ft 400 kts 355°
2026-04-21 21:18 24.76065 56.13527 20265 ft 394 kts 355°
2026-04-21 21:19 24.78781 56.13480 19821 ft 388 kts 355°
2026-04-21 21:19 24.81455 56.13432 19380 ft 381 kts 356°
2026-04-21 21:19 24.84092 56.13384 18939 ft 376 kts 356°
2026-04-21 21:19 24.86694 56.13337 18509 ft 371 kts 356°
2026-04-21 21:20 24.89254 56.13193 18069 ft 363 kts 347°
2026-04-21 21:20 24.91603 56.12314 17545 ft 354 kts 328°
2026-04-21 21:20 24.93528 56.10683 16959 ft 347 kts 310°
2026-04-21 21:20 24.95067 56.08645 16385 ft 345 kts 307°
2026-04-21 21:21 24.96579 56.06601 15789 ft 344 kts 307°
2026-04-21 21:21 24.98097 56.04553 15136 ft 346 kts 307°
2026-04-21 21:21 24.99627 56.02490 14412 ft 350 kts 307°
2026-04-21 21:21 25.01178 56.00403 13652 ft 354 kts 307°
2026-04-21 21:22 25.02727 55.98320 12823 ft 357 kts 307°
2026-04-21 21:22 25.04305 55.96199 11995 ft 357 kts 307°
2026-04-21 21:22 25.05867 55.94103 11286 ft 349 kts 307°
2026-04-21 21:22 25.07379 55.92074 10808 ft 335 kts 307°
2026-04-21 21:23 25.08829 55.90127 10365 ft 322 kts 307°
2026-04-21 21:23 25.10228 55.88247 9928 ft 311 kts 307°
2026-04-21 21:23 25.11127 55.87037 9644 ft 304 kts 306°
2026-04-21 21:23 25.12450 55.85254 9146 ft 296 kts 306°
2026-04-21 21:24 25.13734 55.83520 8685 ft 288 kts 307°
2026-04-21 21:24 25.14987 55.81827 8219 ft 282 kts 307°
2026-04-21 21:24 25.16605 55.79642 7615 ft 275 kts 307°
2026-04-21 21:24 25.17418 55.78543 7257 ft 273 kts 307°
2026-04-21 21:25 25.18579 55.76882 6697 ft 273 kts 304°
2026-04-21 21:25 25.19627 55.75173 6149 ft 272 kts 301°
2026-04-21 21:25 25.20645 55.73415 5568 ft 272 kts 301°
2026-04-21 21:25 25.21662 55.71651 4996 ft 272 kts 302°
2026-04-21 21:26 25.22677 55.69887 4438 ft 272 kts 302°
2026-04-21 21:26 25.23687 55.68131 3914 ft 270 kts 302°
2026-04-21 21:26 25.24667 55.66427 3728 ft 255 kts 303°
2026-04-21 21:26 25.25587 55.64827 3594 ft 239 kts 303°
2026-04-21 21:27 25.26436 55.63350 3451 ft 213 kts 303°
2026-04-21 21:27 25.27158 55.62095 3314 ft 177 kts 303°
2026-04-21 21:27 25.27793 55.60991 2927 ft 167 kts 304°
2026-04-21 21:27 25.28417 55.59906 2430 ft 168 kts 304°
2026-04-21 21:28 25.29040 55.58821 1967 ft 168 kts 304°
2026-04-21 21:28 25.29671 55.57733 1513 ft 168 kts 304°
2026-04-21 21:28 25.30879 55.55634 801 ft 155 kts 303°
2026-04-21 21:29 25.31442 55.54663 519 ft 146 kts 302°
2026-04-21 21:29 25.31971 55.53733 238 ft 138 kts 303°
2026-04-21 21:29 25.32459 55.52875 119 ft 123 kts 305°
2026-04-21 21:29 25.32852 55.52201 116 ft 82 kts 303°
2026-04-21 21:30 25.33075 55.51812 116 ft 42 kts 301°
2026-04-21 21:30 25.33184 55.51538 118 ft 35 kts 281°
2026-04-21 21:30 25.33202 55.51294 115 ft 29 kts 270°
2026-04-21 21:30 25.33203 55.51226 112 ft 0 kts 274°
2026-04-21 21:31 25.33205 55.51193 113 ft 11 kts 274°
2026-04-21 21:31 25.33224 55.51091 115 ft 16 kts 291°
2026-04-21 21:31 25.33287 55.50970 114 ft 20 kts 299°
2026-04-21 21:31 25.33241 55.50856 114 ft 17 kts 209°
2026-04-21 21:32 25.33147 55.50879 113 ft 16 kts 126°
2026-04-21 21:32 25.33079 55.50996 113 ft 20 kts 122°
2026-04-21 21:32 25.32999 55.51133 115 ft 23 kts 122°
2026-04-21 21:32 25.32914 55.51283 114 ft 24 kts 122°
2026-04-21 21:33 25.32833 55.51425 114 ft 23 kts 122°
2026-04-21 21:33 25.32743 55.51581 114 ft 25 kts 122°
2026-04-21 21:33 25.32652 55.51741 113 ft 26 kts 122°
2026-04-21 21:33 25.32575 55.51873 114 ft 19 kts 123°
2026-04-21 21:34 25.32525 55.51957 112 ft 13 kts 123°
2026-04-21 21:34 25.32468 55.52055 114 ft 17 kts 122°
2026-04-21 21:34 25.32390 55.52067 115 ft 14 kts 208°
2026-04-21 21:34 25.32335 55.52030 111 ft 9 kts 212°
2026-04-21 21:35 25.32315 55.52016 115 ft 0 kts 212°